DW8097 Weather Reports


time (UTC)temp
F
wind
direction
speed
knots
gust
knots
rain 1hr
in
rain 24hr
in
rain mn
in
humidity
%
barometer
mb
20260505193012 51 342 5.2 9.6 0.00 0.00 0.00 32 1009.4
20260505191511 54 336 6.1 13.9 0.00 0.00 0.00 29 1009.4
20260505190038 52 277 4.3 10.4 0.00 0.00 0.00 29 1009.6
20260505184538 51 355 2.6 11.3 0.00 0.00 0.00 32 1009.8
20260505183036 51 328 6.1 13.9 0.00 0.00 0.00 30 1009.7
20260505181533 51 331 4.3 12.2 0.00 0.00 0.00 31 1009.6
20260505180055 51 9 8.7 16.5 0.00 0.00 0.00 30 1009.4
20260505174547 51 319 1.7 11.3 0.00 0.00 0.00 31 1009.6
20260505173030 49 336 7.8 14.8 0.00 0.00 0.00 31 1009.6
20260505171524 49 318 4.3 17.4 0.00 0.00 0.00 31 1009.6
20260505170017 50 323 7.0 14.8 0.00 0.00 0.00 31 1009.6
20260505164516 50 355 6.1 8.7 0.00 0.00 0.00 31 1009.6
20260505163019 48 351 5.2 14.8 0.00 0.00 0.00 30 1009.7
20260505161506 50 290 4.3 12.2 0.00 0.00 0.00 33 1009.7
20260505153059 48 338 7.0 12.2 0.00 0.00 0.00 32 1009.6
20260505151602 48 355 9.6 14.8 0.00 0.00 0.00 35 1009.3
20260505124545 43 307 4.3 7.0 0.00 0.00 0.00 49 1008.4
20260505123040 42 309 2.6 6.1 0.00 0.00 0.00 52 1008.4
20260505121537 42 310 2.6 6.1 0.00 0.00 0.00 53 1008.1
20260505120038 42 295 0.9 3.5 0.00 0.00 0.00 55 1007.9
20260505114532 40 317 3.5 6.1 0.00 0.00 0.00 56 1007.6
20260505113029 40 301 1.7 4.3 0.00 0.00 0.00 57 1007.1
20260505111525 39 281 1.7 4.3 0.00 0.00 0.00 59 1006.9
20260505101548 40 317 1.7 5.2 0.00 0.00 0.00 59 1006.3
20260505100051 40 316 1.7 7.8 0.00 0.00 0.00 59 1006.2
20260505094514 41 281 0.9 2.6 0.00 0.00 0.00 57 1006.1
20260505093022 41 313 1.7 4.3 0.00 0.00 0.00 57 1006.0
20260505091546 42 268 1.7 4.3 0.00 0.00 0.00 56 1005.8
20260505090040 42 327 0.9 4.3 0.00 0.00 0.00 56 1005.5
20260505084635 41 274 1.7 3.5 0.00 0.00 0.00 56 1005.3
20260505083033 42 313 0.9 3.5 0.00 0.00 0.00 56 1005.1
20260505081535 42 294 0.0 2.6 0.00 0.00 0.00 56 1004.8
20260505080028 42 294 0.9 4.3 0.00 0.00 0.00 58 1004.8
20260505074525 42 279 0.9 3.5 0.00 0.00 0.00 57 1004.7
20260505073023 42 248 0.9 2.6 0.00 0.00 0.00 56 1004.7
20260505071521 42 303 1.7 3.5 0.00 0.00 0.00 55 1004.7
20260505070019 43 279 3.5 6.1 0.00 0.00 0.00 53 1004.7
20260505064515 44 282 3.5 6.1 0.00 0.00 0.00 52 1004.7
20260505063017 43 258 2.6 6.1 0.00 0.00 0.00 52 1004.8
20260505061512 44 273 2.6 6.1 0.00 0.00 0.00 51 1004.8
20260505060010 44 305 2.6 5.2 0.00 0.00 0.00 50 1004.7
20260505054537 45 263 2.6 6.1 0.00 0.00 0.00 50 1004.8
20260505053042 45 263 1.7 5.2 0.00 0.00 0.00 49 1004.8
20260505051554 45 273 2.6 4.3 0.00 0.00 0.00 48 1004.6
20260505041527 47 284 1.7 5.2 0.00 0.00 0.00 45 1004.5
20260505040025 47 314 1.7 3.5 0.00 0.00 0.00 45 1004.4
20260505034520 47 318 2.6 7.0 0.00 0.00 0.00 43 1004.4
20260505033018 48 327 4.3 10.4 0.00 0.00 0.00 42 1004.4
20260505031516 48 5 4.3 9.6 0.00 0.00 0.00 43 1004.4
20260505030011 49 21 7.8 14.8 0.00 0.00 0.00 42 1004.2
20260505024510 49 355 8.7 14.8 0.00 0.00 0.00 43 1003.9
20260505023003 50 52 8.7 15.6 0.00 0.00 0.00 41 1003.4
20260505021558 51 5 7.8 13.9 0.00 0.00 0.00 41 1003.0
20260505020103 51 325 2.6 12.2 0.00 0.00 0.00 40 1002.6
20260505014554 52 338 3.5 7.8 0.00 0.00 0.00 40 1002.3
20260505013100 52 322 6.1 11.3 0.00 0.00 0.00 39 1002.1
20260505011548 53 344 7.8 14.8 0.00 0.00 0.00 38 1001.7
20260505010048 54 332 6.1 12.2 0.00 0.00 0.00 39 1001.5
20260505004538 54 327 5.2 13.9 0.00 0.00 0.00 39 1001.3
20260505003035 55 330 9.6 19.1 0.00 0.00 0.00 40 1001.1
20260505001533 56 305 10.4 18.2 0.00 0.00 0.00 38 1000.7
20260505000026 57 293 3.5 16.5 0.00 0.00 0.00 38 1000.5
20260504234524 57 355 7.8 20.9 0.00 0.00 0.00 38 1000.2
20260504233020 58 311 7.0 18.2 0.00 0.00 0.00 36 1000.1
20260504231516 59 59 9.6 20.9 0.00 0.00 0.00 34 999.7
20260504230053 60 355 7.8 17.4 0.00 0.00 0.00 36 999.5
20260504224541 61 360 10.4 19.1 0.00 0.00 0.00 33 999.2
20260504223008 62 342 7.0 15.6 0.00 0.00 0.00 32 999.0
20260504221505 63 342 7.0 16.5 0.00 0.00 0.00 31 998.6
20260504220035 63 284 7.8 17.4 0.00 0.00 0.00 32 998.3
20260504214533 64 284 9.6 14.8 0.00 0.00 0.00 32 998.2
20260504213030 63 302 8.7 14.8 0.00 0.00 0.00 31 998.1
20260504211529 64 329 7.8 14.8 0.00 0.00 0.00 33 997.9
20260504210034 63 333 7.0 13.0 0.00 0.00 0.00 34 998.0
20260504204527 63 315 6.1 14.8 0.00 0.00 0.00 29 997.9
20260504203034 62 329 7.0 18.2 0.00 0.00 0.00 28 997.8
20260504201522 63 334 9.6 16.5 0.00 0.00 0.00 27 997.9
20260504200019 64 324 8.7 19.1 0.00 0.00 0.00 26 997.7
20260504194517 65 245 6.1 19.1 0.00 0.00 0.00 28 997.5